Weather in Fürth

Germany     49°28′24″N   10°59′33″E
temp.,
°C
wind,
m/s
gust,
m/s
humid.,
%
clouds,
%
prec.,
mm/h
press.,
hPa
HPBL,
m
16 april, fri
fri1623:00+1n2575100 0.0 1027225
02:000n238684 0.0 1026102
05:00−1nnw239589 0.1 1026155
08:00+1n248734 0.1 1026302
11:00+5nne345699 0.0 10251338
14:00+7nne3455100 0.0 10241554
17:00+6nne4562100 0.1 10231030
20:00+5nne4771100 0.1 1024483
17 april, sat
sat1723:00+3ne1375100 0.0 1024114
02:00+1n228626 0.0 102452
05:00−1n23915 0.0 102366
08:00+1n24795 0.0 1024217
11:00+7n33567 0.0 10221083
14:00+8n555793 0.0 10211346
17:00+7n346399 0.0 10201061
20:00+5nne467929 0.0 1021359
18 april, sun
sun1823:00+1nne239168 0.0 102298
02:00+2n239099 0.0 1021141
05:00+2n2491100 0.0 1022171
08:00+3ne1385100 0.0 1022232
11:00+7n227489 0.0 1021711
14:00+8n2265100 0.1 10201091
17:00+8n2370100 0.1 1020636
20:00+7ne007974 0.2 102111
19 april, mon
mon1923:00+6nne248399 0.0 1021102
02:00+6nne128689 0.0 102163
05:00+3nne1193100 0.0 102112
08:00+5n1187100 0.0 1021114
11:00+10n226593 0.0 1020830
14:00+11nne3362100 0.0 1018996
17:00+12n2263100 0.1 10171002
20:00+9nw1178100 0.2 101716
20 april, tue
tue2023:00+8n239087 0.3 101783
02:00+5n11945 0.3 101711
05:00+4nnw119538 0.0 101710
08:00+6w0089100 0.0 1016111
11:00+10w127633 0.0 1015441
14:00+14nw225668 0.8 10121539
17:00+13nnw226145 1.6 1011932
20:00+9nne34846 2.9 101283